Home   Weather   Riverside   Past weeks
Flag for USA

Past Weather in Riverside, California, USA — Yesterday and Last 2 Weeks

Now
61 °F

Fog.


Feels Like: 61 °F
Forecast: 85 / 60 °F
Wind: 5 mph from West

Location: Riverside Municipal Airport

Current Time: Jun 27, 2019 at 3:25:03 am

Latest Report: Jun 27, 2019 at 2:53 am


Visibility: 6 mi

Pressure: 29.93 "Hg

Humidity: 87%

Dew Point: 57 °F

Location of RiversideLocation

Past Weather in Riverside — Graph

°F

Riverside Temperature Yesterday

Maximum temperature yesterday: 81 °F (at 3:53 pm)
Minimum temperature yesterday: 62 °F (at 12:53 am)
Average temperature yesterday: 69 °F

High & Low Weather Summary for the Past Weeks

 TemperatureHumidityPressure
High94 °F (Jun 12, 1:53 pm)93% (Jun 13, 3:53 am)29.97 "Hg (Jun 13, 3:53 am)
Low58 °F (Jun 23, 5:53 am)28% (Jun 12, 3:53 pm)29.77 "Hg (Jun 16, 4:53 pm)
Average68 °F69%29.88 "Hg
* Reported Jun 12 2:53 am — Jun 27 2:35 am, Riverside. Weather by CustomWeather, © 2019

Note: Actual official high and low records may vary slightly from our data, if they occured in-between our weather recording intervals... More about our weather records

Advertising

Riverside Weather History for the Previous 24 Hours

Scroll right to see more
 ConditionsComfort  
Time TempWeatherWind HumidityBarometerVisibility
2:35 am
Thu, Jun 27
60 °FPassing clouds.5 mph90%29.97 "Hg7 mi
1:53 am59 °FClear.3 mph90%29.94 "Hg7 mi
12:53 am61 °FClear.5 mph83%29.94 "Hg8 mi
11:53 pm
Wed, Jun 26
62 °FClear.6 mph80%29.95 "Hg10 mi
10:53 pm63 °FClear.6 mph78%29.94 "Hg10 mi
9:53 pm64 °FClear.6 mph75%29.94 "Hg10 mi
8:53 pm67 °FClear.10 mph68%29.92 "Hg10 mi
7:53 pm70 °FSunny.14 mph61%29.90 "Hg10 mi
6:53 pm74 °FSunny.12 mph53%29.89 "Hg10 mi
5:53 pm77 °FSunny.15 mph48%29.88 "Hg10 mi
4:53 pm79 °FSunny.15 mph44%29.88 "Hg10 mi
3:53 pm81 °FSunny.16 mph39%29.89 "Hg10 mi
2:53 pm80 °FSunny.9 mph41%29.90 "Hg10 mi
1:53 pm80 °FSunny.14 mph42%29.90 "Hg10 mi
12:53 pm77 °FSunny.8 mph47%29.91 "Hg9 mi
11:53 am73 °FSunny.6 mph55%29.92 "Hg8 mi
10:53 am71 °FPassing clouds.5 mph59%29.93 "Hg7 mi
9:53 am66 °FOvercast.3 mph70%29.93 "Hg7 mi
8:53 am64 °FOvercast.3 mph78%29.94 "Hg6 mi
7:53 am63 °FOvercast.No wind81%29.93 "Hg4 mi
6:53 am63 °FOvercast.No wind81%29.91 "Hg3 mi
5:53 am63 °FOvercast.No wind81%29.88 "Hg7 mi
4:53 am63 °FOvercast.No wind81%29.87 "Hg7 mi
3:53 am62 °FOvercast.No wind83%29.86 "Hg8 mi
Weather by CustomWeather, © 2019

See weather overview